Torna al catalogo

SL-14 DEB

AttivoPO
NORAD 45303·DEBRIS·🇷🇺 Russia

Lanciato Aug 15, 1991 da Plesetsk Cosmodrome

Loading…

Prossimi Passaggi (prossime 24 ore)

TLE

AggiornatoSource: Space-Track

Epoca: Sep 14, 2026, 00:34 UTC

1 45303U 91056AR  26257.02415958  .00013985  00000-0  55034-2 0  9997
2 45303  82.6103 267.8491 0096043 235.5353 123.6730 14.26624919329350

Traccia SL-14 DEB in tempo reale con AllMySat

Download on the App Store